Date,TemperatureHighF,TemperatureAvgF,TemperatureLowF,DewpointHighF,DewpointAvgF,DewpointLowF,HumidityHigh,HumidityAvg,HumidityLow,PressureMaxIn,PressureMinIn,WindSpeedMaxMPH,WindSpeedAvgMPH,GustSpeedMaxMPH,PrecipitationSumIn
2013-1-1,14,3,-10,12,0,-14,98,86,83,29.62,29.32,19,5,19,0.00
2013-1-2,24,20,14,21,18,12,93,91,88,29.45,29.26,18,4,18,0.00
2013-1-3,18,13,7,15,10,4,92,85,77,29.55,29.21,31,9,31,0.01
2013-1-4,25,19,9,21,16,6,93,88,82,29.49,29.22,26,8,26,0.00
2013-1-5,19,12,0,17,10,-4,93,91,85,29.48,29.33,8,2,8,0.00
2013-1-6,20,14,8,14,10,5,92,84,68,29.57,29.23,22,3,23,0.00
2013-1-7,32,27,18,27,22,14,87,83,80,29.24,29.00,41,10,41,0.00
2013-1-8,32,28,19,29,24,17,94,85,75,29.31,28.99,23,5,23,0.00
2013-1-9,32,27,23,29,22,19,93,84,79,29.63,28.99,43,12,43,0.00
2013-1-10,46,36,22,32,24,17,92,65,38,29.58,29.07,36,9,36,0.10
2013-1-11,35,34,30,34,33,28,97,96,92,29.07,28.71,15,2,15,0.33
2013-1-12,30,11,2,28,8,-1,96,87,77,29.47,28.71,24,9,24,0.04
2013-1-13,4,-1,-7,0,-4,-11,86,84,81,29.56,29.43,19,6,19,0.04
2013-1-14,8,3,-2,4,-1,-6,86,82,75,29.71,29.56,20,6,20,0.00
2013-1-15,22,14,4,16,7,0,89,77,63,29.60,28.91,29,6,29,0.00
2013-1-16,23,10,-10,22,4,-16,94,77,55,29.64,28.85,33,11,34,0.00
2013-1-17,3,-6,-13,-6,-13,-20,84,73,63,29.77,29.63,24,6,24,0.00
2013-1-18,14,6,-13,11,2,-17,90,86,80,29.67,29.16,10,3,10,0.00
2013-1-19,22,9,-6,20,6,-10,94,86,77,29.58,28.98,31,9,31,0.00
2013-1-20,-2,-9,-15,-8,-14,-20,83,79,70,29.70,29.58,27,8,27,0.00
2013-1-21,-11,-17,-22,-18,-22,-27,78,75,66,29.66,29.58,25,9,27,0.00
2013-1-22,-2,-13,-25,-9,-18,-30,84,77,67,29.73,29.56,16,5,20,0.00
2013-1-23,-4,-9,-21,-8,-14,-25,84,77,66,30.06,29.49,29,8,29,0.00
2013-1-24,3,-13,-31,0,-19,-37,92,76,62,30.11,29.53,18,3,18,0.00
2013-1-25,9,4,-7,4,0,-10,95,84,75,29.70,29.32,19,5,19,0.00
2013-1-26,17,3,-16,11,-2,-20,88,81,75,29.73,29.52,16,3,16,0.00
2013-1-27,31,21,10,23,15,6,85,77,63,29.54,29.25,14,2,14,0.07
2013-1-28,34,30,26,30,27,23,95,89,80,29.26,29.10,15,2,15,0.01
2013-1-29,31,26,15,30,24,12,96,92,87,29.20,28.93,21,5,21,0.00
2013-1-30,15,9,4,12,5,0,95,85,79,29.20,29.10,24,9,24,0.00
2013-1-31,4,-2,-16,0,-7,-20,85,80,71,29.57,29.13,30,10,30,0.00